sat.trackr.live / text

‹ back to catalog

STARLINK-32099

NORAD 59697 · 2024-086R

PAYLOAD ACTIVE UNKNOWN

§ Identity

Operator
Country
US
Launch date
2024-05-08
Launch site
AFETR
Launch vehicle
Mass (kg)
RCS (m²)

Purposes: comms

External: N2YO · Heavens-Above · Gunter

§ Orbital elements

Epoch: 2026-09-21T15:30:18.700128Z

Period
94.27 min
Inclination
42.9999°
Eccentricity
0.0001663
Mean motion
15.27574669 rev/d
Perigee alt
481.9 km
Apogee alt
484.2 km
Semi-major
6,861.2 km
B*
9.2427e-6
RAAN
33.0254°
Arg perigee
274.8413°
Mean anomaly
85.2249°
Rev number
13,408

§ Raw data

STARLINK-320991 59697U 24086R   26264.64604977 -.00000008  00000+0  92427-5 0  99962 59697  42.9999  33.0254 0001663 274.8413  85.2249 15.27574669134080

JSON: /api/v1/satellites/59697 · /tle

For live sub-satellite position, see the globe view (requires WebGL).

§ Visibility from observer

Set your observer location to see the next 7 days of passes ≥ 10°. The values pass through the URL so the page stays shareable.

No JS? Fill the form by hand. The geolocation button needs JavaScript.